Location: La Sioule Rivi�re
(46.3664°N, 3.3197°E)
Time: 12:18:31
(UTC+00:00)

Cosmos 2082 - Pass Details

Date: 29 October 2020
Orbit: 832 x 857 km, 71.0° (Epoch: 23 November)

Event Time Altitude Azimuth Distance (km) Brightness Sun altitude
Rises 18:10:47 0° 333° (NNW) 3,437 7.2 -16.9°
Reaches altitude 10° 18:13:15 10° 334° (NNW) 2,498 6.4 -17.3°
Maximum altitude 18:19:01 84° 63° (ENE) 867 3.6 -18.3°
Drops below altitude 10° 18:24:45 10° 153° (SSE) 2,482 5.9 -19.3°
Enters shadow 18:25:37 - 153° (SSE) 2,812 6.2 -19.4°
